Location: Shannon
(40.5500°S, 175.4167°E)
Time: 21:34:16
(UTC+00:00)

ARIANE 6 FM1 Upper Stage - Pass Details

Date: 17 November 2025
Orbit: 522 x 611 km, 62.0° (Epoch: 14 December)

Event Time Altitude Azimuth Distance (km) Brightness Sun altitude
Exits shadow 15:23:38 20° 284° (WNW) 1,409 4.2 -14.3°
Maximum altitude 15:26:11 38° 227° (SW) 939 3.7 -14.0°
Drops below altitude 10° 15:30:27 10° 157° (SSE) 1,998 6.5 -13.4°
Sets 15:32:53 0° 149° (SSE) 2,913 7.8 -13.0°
